When you browse on this site, cookies collect data to enhance your experience and personalize the content and advertising you see.
Visit our Privacy Policy to learn more. By continuing to use the site, you agree to this use of cookies and data.
  • In Schweiz
  • Länderverzeichnis
  • Für 7 Tage
  • Wassertemperatur
  • Wetterkarte
  • Widgets
  • user-avatar
    Anmelden

    Stündliche Wetter Pomorie

    Heute, 10 April, Freitag

    Zeit Temperatur Niederschläge Wind Luftdruck Luftfeuchtigkeit
    00:00 +8°C° 0 mm 2 m/S 764 mmHg 60%
    01:00 +8°C° 0 mm 2 m/S 763 mmHg 60%
    02:00 +8°C° 0 mm 2 m/S 763 mmHg 61%
    03:00 +8°C° 0 mm 2 m/S 763 mmHg 61%
    04:00 +8°C° 0 mm 2 m/S 763 mmHg 62%
    05:00 +8°C° 0 mm 2 m/S 762 mmHg 63%
    06:00 +10°C° 0 mm 2 m/S 762 mmHg 60%
    07:00 +13°C° 0 mm 2 m/S 763 mmHg 58%
    08:00 +15°C° 0 mm 2 m/S 762 mmHg 55%
    09:00 +16°C° 0 mm 2 m/S 762 mmHg 51%
    10:00 +18°C° 0 mm 2 m/S 762 mmHg 47%
    11:00 +20°C° 0 mm 2 m/S 762 mmHg 44%
    12:00 +21°C° 0 mm 2 m/S 762 mmHg 43%
    13:00 +23°C° 0 mm 2 m/S 762 mmHg 42%
    14:00 +24°C° 0 mm 3 m/S 762 mmHg 39%
    15:00 +22°C° 0 mm 3 m/S 761 mmHg 43%
    16:00 +21°C° 0 mm 3 m/S 761 mmHg 48%
    17:00 +20°C° 0 mm 2 m/S 761 mmHg 52%
    18:00 +18°C° 0 mm 2 m/S 761 mmHg 56%
    19:00 +16°C° 0 mm 2 m/S 762 mmHg 59%
    20:00 +14°C° 0 mm 1 m/S 762 mmHg 63%
    21:00 +13°C° 0 mm 1 m/S 762 mmHg 64%
    22:00 +13°C° 0 mm 1 m/S 763 mmHg 64%
    23:00 +13°C° 0 mm 1 m/S 763 mmHg 65%

    Morgen, 11 April, Samstag

    Zeit Temperatur Niederschläge Wind Luftdruck Luftfeuchtigkeit
    00:00 +12°C° 0 mm 2 m/S 763 mmHg 67%
    01:00 +12°C° 0 mm 2 m/S 763 mmHg 69%
    02:00 +11°C° 0 mm 3 m/S 764 mmHg 71%
    03:00 +10°C° 0 mm 3 m/S 764 mmHg 73%
    04:00 +10°C° 0 mm 3 m/S 764 mmHg 75%
    05:00 +8°C° 0 mm 4 m/S 765 mmHg 77%
    06:00 +10°C° 0 mm 4 m/S 765 mmHg 72%
    07:00 +11°C° 0 mm 4 m/S 765 mmHg 68%
    08:00 +12°C° 0 mm 4 m/S 766 mmHg 63%
    09:00 +13°C° 0 mm 4 m/S 766 mmHg 59%
    10:00 +14°C° 0 mm 4 m/S 767 mmHg 55%
    11:00 +15°C° 0 mm 4 m/S 767 mmHg 50%
    12:00 +15°C° 0 mm 5 m/S 767 mmHg 50%
    13:00 +15°C° 0 mm 5 m/S 767 mmHg 50%
    14:00 +14°C° 0 mm 5 m/S 767 mmHg 49%
    15:00 +14°C° 0 mm 4 m/S 767 mmHg 51%
    16:00 +13°C° 0 mm 4 m/S 767 mmHg 53%
    17:00 +12°C° 0 mm 4 m/S 767 mmHg 54%
    18:00 +10°C° 0 mm 3 m/S 767 mmHg 58%
    19:00 +9°C° 0 mm 2 m/S 768 mmHg 62%
    20:00 +8°C° 0 mm 2 m/S 768 mmHg 66%
    21:00 +8°C° 0 mm 1 m/S 768 mmHg 66%
    22:00 +8°C° 0 mm 1 m/S 769 mmHg 65%
    23:00 +8°C° 0 mm 1 m/S 769 mmHg 64%

    übermorgen, 12 April, Sonntag

    Zeit Temperatur Niederschläge Wind Luftdruck Luftfeuchtigkeit
    00:00 +7°C° 0 mm 1 m/S 769 mmHg 64%
    01:00 +6°C° 0 mm 0 m/S 769 mmHg 63%
    02:00 +6°C° 0 mm 0 m/S 769 mmHg 62%
    03:00 +7°C° 0 mm 1 m/S 769 mmHg 62%
    04:00 +7°C° 0 mm 1 m/S 769 mmHg 61%
    05:00 +6°C° 0 mm 1 m/S 769 mmHg 61%
    06:00 +8°C° 0 mm 1 m/S 770 mmHg 57%
    07:00 +10°C° 0 mm 1 m/S 770 mmHg 54%
    08:00 +12°C° 0 mm 1 m/S 770 mmHg 51%
    09:00 +13°C° 0 mm 1 m/S 770 mmHg 48%
    10:00 +14°C° 0 mm 2 m/S 770 mmHg 45%
    11:00 +14°C° 0 mm 3 m/S 770 mmHg 42%
    12:00 +14°C° 0 mm 3 m/S 770 mmHg 42%
    13:00 +14°C° 0 mm 3 m/S 770 mmHg 42%
    14:00 +14°C° 0 mm 3 m/S 769 mmHg 42%
    15:00 +14°C° 0 mm 3 m/S 769 mmHg 45%
    16:00 +13°C° 0 mm 3 m/S 769 mmHg 47%
    17:00 +12°C° 0 mm 3 m/S 768 mmHg 50%
    18:00 +10°C° 0 mm 3 m/S 768 mmHg 56%
    19:00 +9°C° 0 mm 2 m/S 768 mmHg 62%
    20:00 +7°C° 0 mm 2 m/S 768 mmHg 68%
    21:00 +7°C° 0 mm 1 m/S 768 mmHg 70%
    22:00 +7°C° 0 mm 1 m/S 768 mmHg 72%
    23:00 +6°C° 0 mm 1 m/S 768 mmHg 74%

    13 April, Montag

    Zeit Temperatur Niederschläge Wind Luftdruck Luftfeuchtigkeit
    00:00 +6°C° 0 mm 1 m/S 768 mmHg 76%
    01:00 +6°C° 0 mm 1 m/S 767 mmHg 78%
    02:00 +6°C° 0 mm 1 m/S 767 mmHg 80%
    03:00 +5°C° 0 mm 1 m/S 767 mmHg 80%
    04:00 +5°C° 0 mm 1 m/S 767 mmHg 81%
    05:00 +5°C° 0 mm 1 m/S 766 mmHg 81%
    06:00 +7°C° 0 mm 1 m/S 766 mmHg 73%
    07:00 +8°C° 0 mm 1 m/S 766 mmHg 64%
    08:00 +10°C° 0 mm 1 m/S 766 mmHg 56%
    09:00 +12°C° 0 mm 1 m/S 766 mmHg 51%
    10:00 +13°C° 0 mm 2 m/S 766 mmHg 46%
    11:00 +15°C° 0 mm 2 m/S 765 mmHg 41%
    12:00 +14°C° 0 mm 3 m/S 765 mmHg 43%
    13:00 +16°C° 0 mm 3 m/S 765 mmHg 44%
    14:00 +15°C° 0 mm 4 m/S 764 mmHg 46%
    15:00 +14°C° 0 mm 4 m/S 764 mmHg 51%
    16:00 +13°C° 0 mm 4 m/S 763 mmHg 56%
    17:00 +12°C° 0 mm 4 m/S 763 mmHg 60%
    18:00 +11°C° 0 mm 3 m/S 763 mmHg 67%
    19:00 +9°C° 0 mm 3 m/S 763 mmHg 74%
    20:00 +8°C° 0 mm 3 m/S 763 mmHg 80%
    21:00 +8°C° 0 mm 2 m/S 762 mmHg 81%
    22:00 +8°C° 0 mm 2 m/S 762 mmHg 81%
    23:00 +8°C° 0 mm 2 m/S 762 mmHg 81%

    14 April, Dienstag

    Zeit Temperatur Niederschläge Wind Luftdruck Luftfeuchtigkeit
    00:00 +8°C° 0 mm 2 m/S 761 mmHg 80%
    01:00 +8°C° 0 mm 2 m/S 761 mmHg 78%
    02:00 +8°C° 0 mm 2 m/S 760 mmHg 76%
    03:00 +9°C° 0 mm 2 m/S 760 mmHg 75%
    04:00 +9°C° 0 mm 2 m/S 760 mmHg 74%
    05:00 +9°C° 0 mm 2 m/S 760 mmHg 73%
    06:00 +11°C° 0 mm 3 m/S 759 mmHg 71%
    07:00 +12°C° 0 mm 3 m/S 759 mmHg 70%
    08:00 +13°C° 0 mm 4 m/S 759 mmHg 69%
    09:00 +17°C° 0 mm 4 m/S 759 mmHg 64%
    10:00 +19°C° 0 mm 4 m/S 759 mmHg 59%
    11:00 +21°C° 0 mm 4 m/S 759 mmHg 55%
    12:00 +21°C° 0 mm 4 m/S 758 mmHg 53%
    13:00 +22°C° 0 mm 4 m/S 758 mmHg 51%
    14:00 +23°C° 0 mm 5 m/S 758 mmHg 49%
    15:00 +22°C° 0.1 mm 5 m/S 757 mmHg 53%
    16:00 +21°C° 0.1 mm 5 m/S 756 mmHg 57%
    17:00 +20°C° 0.1 mm 5 m/S 756 mmHg 62%
    18:00 +19°C° 0.2 mm 4 m/S 756 mmHg 67%
    19:00 +17°C° 0.2 mm 4 m/S 756 mmHg 73%
    20:00 +14°C° 0.2 mm 4 m/S 756 mmHg 79%
    21:00 +14°C° 0.3 mm 4 m/S 756 mmHg 82%
    22:00 +14°C° 0.3 mm 5 m/S 757 mmHg 84%
    23:00 +13°C° 0.3 mm 5 m/S 757 mmHg 87%

    15 April, Mittwoch

    Zeit Temperatur Niederschläge Wind Luftdruck Luftfeuchtigkeit
    00:00 +11°C° 2.6 mm 6 m/S 758 mmHg 88%
    01:00 +9°C° 2.6 mm 7 m/S 759 mmHg 89%
    02:00 +6°C° 2.6 mm 8 m/S 760 mmHg 90%
    03:00 +5°C° 0.6 mm 8 m/S 760 mmHg 90%
    04:00 +4°C° 0.6 mm 8 m/S 761 mmHg 91%
    05:00 +2°C° 0.6 mm 8 m/S 762 mmHg 91%
    06:00 +4°C° 0 mm 7 m/S 763 mmHg 85%
    07:00 +4°C° 0 mm 6 m/S 764 mmHg 79%
    08:00 +6°C° 0 mm 5 m/S 765 mmHg 73%
    09:00 +7°C° 0 mm 4 m/S 765 mmHg 65%
    10:00 +8°C° 0 mm 4 m/S 765 mmHg 57%
    11:00 +11°C° 0 mm 3 m/S 766 mmHg 49%
    12:00 +11°C° 0 mm 3 m/S 766 mmHg 49%
    13:00 +12°C° 0 mm 2 m/S 765 mmHg 49%
    14:00 +12°C° 0 mm 2 m/S 765 mmHg 49%
    15:00 +12°C° 0 mm 2 m/S 765 mmHg 51%
    16:00 +11°C° 0 mm 3 m/S 765 mmHg 52%
    17:00 +11°C° 0 mm 3 m/S 765 mmHg 54%
    18:00 +9°C° 0 mm 3 m/S 765 mmHg 59%
    19:00 +8°C° 0 mm 3 m/S 764 mmHg 64%
    20:00 +6°C° 0 mm 4 m/S 764 mmHg 68%
    21:00 +5°C° 0 mm 4 m/S 764 mmHg 69%
    22:00 +5°C° 0 mm 3 m/S 764 mmHg 70%
    23:00 +5°C° 0 mm 3 m/S 764 mmHg 71%
    Mehr zeigen